Regional Weather Roundup
Issued by NWS

Home | Current Version | Previous Version | Graphics & Text | Print | Product List | Glossary Off
Versions: 1 2 3 4 5 6 7 8 9 10 11 12 13 14 15 16 17 18 19 20 21 22 23 24 25 26 27 28 29 30 31 32 33 34 35 36 37 38 39 40 41 42 43 44 45 46 47 48 49 50

000
ASUS43 KTOP 240959
RWRKS

WEATHER ROUNDUP FOR KANSAS
NATIONAL WEATHER SERVICE GOODLAND KS
400 AM CST SAT FEB 24 2018

NOTE:  "FAIR" INDICATES FEW OR NO CLOUDS BELOW 12,000 FEET WITH NO
SIGNIFICANT WEATHER AND/OR OBSTRUCTIONS TO VISIBILITY.

KSZ001>006-013>018-027>032-041>047-241100-
NORTHWEST KANSAS

CITY           SKY/WX    TMP DP  RH WIND       PRES   REMARKS
GOODLAND       CLOUDY    25  24  96 CALM      29.86F FOG
HAYS           MIX PCPN  29  28  96 E7        29.98F FOG
HILL CITY      CLOUDY    27  27 100 E5        29.98F FOG
RUSSELL        CLOUDY    31  30  96 E7        29.98S FOG
$$

KSZ061>065-074>080-084>089-241100-
SOUTHWEST KANSAS

CITY           SKY/WX    TMP DP  RH WIND       PRES   REMARKS
DODGE CITY     CLOUDY    28  26  92 N7        29.94F FOG
GARDEN CITY    CLOUDY    27  26  96 E8        29.90F FOG
GREAT BEND     MIX PCPN  30  29  96 NE8       29.97F FOG
LIBERAL        MIX PCPN  28  27  96 NE7       29.91F FOG
$$

KSZ066>073-081>083-090>101-241100-
SOUTHEAST KANSAS

CITY           SKY/WX    TMP DP  RH WIND       PRES   REMARKS
CHANUTE        CLOUDY    36  35  96 NE10      29.96F FOG     WCI  28
COFFEYVILLE    CLOUDY    38  38 100 N5        29.95F FOG
HUTCHINSON     CLOUDY    32  32 100 N5        29.95F FOG
MEDICINE LODGE   N/A     31  31 100 N6        29.93F
NEWTON         CLOUDY    31  30  96 E8        29.93F FOG
PARSONS        CLOUDY    37  37 100 NE6       29.96F FOG
WICHITA INTL   DRIZZLE   33  33 100 NE8       29.93F FOG
WICHITA JABRA  CLOUDY    32  32 100 NE8       29.92F FOG
WINFIELD       CLOUDY    34  34 100 NE7       29.93F FOG
$$

KSZ007>012-019>026-033>040-048>060-102>105-241100-
NORTHEAST KANSAS

CITY           SKY/WX    TMP DP  RH WIND       PRES   REMARKS
CONCORDIA      CLOUDY    27  27 100 NE8       29.99F FOG
EMPORIA        CLOUDY    32  31  96 E9        29.96F FOG
LAWRENCE       CLOUDY    34  34 100 NE6       30.01F FOG
MANHATTAN      CLOUDY    33  31  92 E10       29.98F FOG     WCI  25
OLATHE IND     CLOUDY    34  34 100 NE8       29.99F FOG
OLATHE EXE     CLOUDY    33  33 100 E12       29.98F FOG     WCI  24
SALINA         CLOUDY    33  32  96 NE7       29.98F FOG
TOPEKA BILLARD CLOUDY    34  34 100 E10       29.99F FOG     WCI  26
TOPEKA FORBES  CLOUDY    34  33  96 E8        29.98F FOG
$$




USA.gov is the U.S. government's official web portal to all federal, state and local government web resources and services.